TimeCST,TemperatureF,Dew PointF,Humidity,Sea Level PressureIn,VisibilityMPH,Wind Direction,Wind SpeedMPH,Gust SpeedMPH,PrecipitationIn,Events,Conditions,WindDirDegrees,DateUTC
12:15 AM,-6.9,-11.7,79,29.97,10.0,WNW,6.9,-,N/A,,Scattered Clouds,290,2013-01-13 06:15:00
12:35 AM,-7.6,-12.3,80,29.97,10.0,West,5.8,-,N/A,,Overcast,280,2013-01-13 06:35:00
12:55 AM,-7.2,-12.3,79,29.97,10.0,WNW,6.9,-,N/A,,Scattered Clouds,290,2013-01-13 06:55:00
1:15 AM,-9.6,-14.8,78,29.97,10.0,West,5.8,-,N/A,,Clear,280,2013-01-13 07:15:00
1:35 AM,-10.1,-15.2,78,29.97,10.0,WNW,8.1,-,N/A,,Clear,290,2013-01-13 07:35:00
1:55 AM,-9.6,-14.4,79,29.97,7.0,West,5.8,-,N/A,,Scattered Clouds,280,2013-01-13 07:55:00
2:15 AM,-7.1,-11.6,81,29.97,10.0,West,5.8,-,N/A,,Mostly Cloudy,280,2013-01-13 08:15:00
2:35 AM,-4.5,-9.2,80,29.97,10.0,West,8.1,-,N/A,,Overcast,280,2013-01-13 08:35:00
2:55 AM,-3.5,-8.0,81,29.98,10.0,WNW,8.1,-,N/A,,Overcast,290,2013-01-13 08:55:00
3:15 AM,-2.6,-6.9,82,29.97,10.0,WNW,6.9,-,N/A,,Mostly Cloudy,300,2013-01-13 09:15:00
3:35 AM,-1.8,-6.3,81,29.97,10.0,WNW,6.9,-,N/A,,Mostly Cloudy,300,2013-01-13 09:35:00
3:55 AM,-1.5,-5.8,82,29.97,10.0,WNW,6.9,-,N/A,,Overcast,300,2013-01-13 09:55:00
4:15 AM,-1.7,-6.0,82,29.97,10.0,WNW,8.1,-,N/A,,Overcast,290,2013-01-13 10:15:00
4:35 AM,-0.8,-5.1,82,29.96,10.0,WNW,9.2,-,N/A,,Mostly Cloudy,290,2013-01-13 10:35:00
4:55 AM,-0.4,-4.9,81,29.96,10.0,West,6.9,-,N/A,,Overcast,280,2013-01-13 10:55:00
5:15 AM,0.3,-4.0,82,29.95,10.0,WNW,8.1,-,N/A,,Overcast,290,2013-01-13 11:15:00
5:35 AM,0.5,-3.8,82,29.95,10.0,WNW,6.9,-,N/A,,Overcast,290,2013-01-13 11:35:00
5:55 AM,0.9,-3.5,82,29.95,10.0,WNW,9.2,-,N/A,,Overcast,290,2013-01-13 11:55:00
6:15 AM,0.9,-3.6,81,29.96,10.0,WNW,8.1,-,N/A,,Overcast,290,2013-01-13 12:15:00
6:35 AM,-0.0,-4.4,82,29.96,10.0,WNW,6.9,-,N/A,,Overcast,290,2013-01-13 12:35:00
6:55 AM,-0.9,-5.1,83,29.97,10.0,WNW,6.9,-,N/A,,Mostly Cloudy,290,2013-01-13 12:55:00
7:15 AM,-1.3,-5.8,81,29.97,10.0,West,8.1,-,N/A,,Scattered Clouds,280,2013-01-13 13:15:00
7:35 AM,-1.3,-5.8,81,29.98,10.0,WNW,6.9,-,N/A,,Scattered Clouds,290,2013-01-13 13:35:00
7:55 AM,-1.3,-5.8,81,29.99,10.0,WNW,5.8,-,N/A,,Scattered Clouds,300,2013-01-13 13:55:00
8:15 AM,-1.3,-5.4,83,29.99,10.0,WNW,6.9,-,N/A,,Mostly Cloudy,300,2013-01-13 14:15:00
8:35 AM,-2.6,-6.9,82,30.00,10.0,WNW,6.9,-,N/A,,Scattered Clouds,300,2013-01-13 14:35:00
9:15 AM,-1.3,-5.8,81,30.02,10.0,West,4.6,-,N/A,,Clear,270,2013-01-13 15:15:00
9:35 AM,-0.0,-4.5,81,30.03,10.0,West,4.6,-,N/A,,Clear,270,2013-01-13 15:35:00
9:55 AM,1.8,-2.7,81,30.03,10.0,West,5.8,-,N/A,,Clear,260,2013-01-13 15:55:00
10:15 AM,4.5,-0.2,81,30.03,10.0,WNW,8.1,-,N/A,,Clear,290,2013-01-13 16:15:00
10:35 AM,5.7,0.5,79,30.03,10.0,WNW,9.2,-,N/A,,Clear,290,2013-01-13 16:35:00
10:55 AM,5.7,0.3,78,30.03,10.0,WNW,9.2,-,N/A,,Clear,290,2013-01-13 16:55:00
11:15 AM,6.4,1.0,78,30.03,10.0,NW,8.1,-,N/A,,Clear,310,2013-01-13 17:15:00
11:35 AM,7.2,1.4,77,30.03,10.0,WNW,8.1,-,N/A,,Clear,290,2013-01-13 17:35:00
11:55 AM,8.1,1.9,76,30.03,10.0,West,6.9,-,N/A,,Clear,270,2013-01-13 17:55:00
12:15 PM,9.5,3.2,76,30.02,10.0,WNW,6.9,-,N/A,,Clear,290,2013-01-13 18:15:00
12:35 PM,10.2,3.6,74,30.01,10.0,WNW,6.9,-,N/A,,Clear,300,2013-01-13 18:35:00
12:55 PM,10.4,3.9,75,30.00,10.0,NW,6.9,-,N/A,,Clear,310,2013-01-13 18:55:00
1:15 PM,11.8,4.5,72,30.00,10.0,NNW,9.2,-,N/A,,Clear,330,2013-01-13 19:15:00
1:35 PM,12.4,3.9,69,30.00,10.0,NNW,8.1,-,N/A,,Clear,340,2013-01-13 19:35:00
1:55 PM,12.6,4.1,69,29.99,10.0,NNW,9.2,-,N/A,,Clear,330,2013-01-13 19:55:00
2:15 PM,12.7,3.4,66,30.00,10.0,NW,9.2,-,N/A,,Clear,310,2013-01-13 20:15:00
2:35 PM,13.1,3.7,66,30.00,10.0,NW,9.2,-,N/A,,Clear,310,2013-01-13 20:35:00
2:55 PM,13.1,3.6,66,30.00,10.0,WNW,9.2,-,N/A,,Clear,300,2013-01-13 20:55:00
3:15 PM,12.9,2.5,63,30.01,10.0,NW,9.2,-,N/A,,Clear,320,2013-01-13 21:15:00
3:35 PM,12.4,1.6,62,30.01,10.0,NNW,6.9,-,N/A,,Clear,330,2013-01-13 21:35:00
3:55 PM,12.2,1.8,63,30.02,10.0,NNW,6.9,-,N/A,,Clear,340,2013-01-13 21:55:00
4:15 PM,11.5,1.4,64,30.03,10.0,NNW,5.8,-,N/A,,Clear,330,2013-01-13 22:15:00
4:35 PM,10.6,1.4,67,30.03,10.0,NNW,6.9,-,N/A,,Scattered Clouds,330,2013-01-13 22:35:00
4:55 PM,11.7,2.1,66,30.03,10.0,NNW,6.9,-,N/A,,Mostly Cloudy,330,2013-01-13 22:55:00
5:15 PM,11.1,1.6,66,30.04,10.0,NNW,5.8,-,N/A,,Overcast,330,2013-01-13 23:15:00
5:35 PM,10.4,1.8,68,30.03,10.0,NW,4.6,-,N/A,,Overcast,320,2013-01-13 23:35:00
6:15 PM,5.4,-0.8,76,30.05,10.0,WNW,4.6,-,N/A,,Scattered Clouds,290,2013-01-14 00:15:00
6:35 PM,3.2,-2.2,78,30.05,10.0,WNW,5.8,-,N/A,,Clear,300,2013-01-14 00:35:00
6:55 PM,-0.8,-6.0,79,30.05,10.0,WNW,8.1,-,N/A,,Clear,290,2013-01-14 00:55:00
7:15 PM,-0.9,-5.8,80,30.05,10.0,WNW,6.9,-,N/A,,Clear,300,2013-01-14 01:15:00
7:35 PM,-3.1,-7.6,81,30.06,10.0,WNW,8.1,-,N/A,,Clear,300,2013-01-14 01:35:00
7:55 PM,-3.3,-7.6,82,30.06,10.0,WNW,6.9,-,N/A,,Clear,300,2013-01-14 01:55:00
8:15 PM,-2.9,-6.9,83,30.06,10.0,WNW,6.9,-,N/A,,Clear,300,2013-01-14 02:15:00
8:35 PM,-3.1,-6.9,84,30.06,10.0,WNW,8.1,-,N/A,,Clear,290,2013-01-14 02:35:00
8:55 PM,-5.6,-9.8,82,30.06,10.0,WNW,10.4,-,N/A,,Clear,300,2013-01-14 02:55:00
9:15 PM,-5.1,-9.6,81,30.06,10.0,WNW,9.2,-,N/A,,Clear,300,2013-01-14 03:15:00
9:35 PM,-5.6,-10.5,79,30.07,10.0,West,6.9,-,N/A,,Clear,260,2013-01-14 03:35:00
9:55 PM,-6.0,-10.5,81,30.07,10.0,West,5.8,-,N/A,,Clear,260,2013-01-14 03:55:00
10:15 PM,-6.7,-11.2,81,30.07,10.0,West,4.6,-,N/A,,Clear,270,2013-01-14 04:15:00
10:35 PM,-7.2,-11.9,80,30.07,10.0,West,6.9,-,N/A,,Clear,280,2013-01-14 04:35:00
10:55 PM,-7.6,-13.0,77,30.07,10.0,West,4.6,-,N/A,,Clear,280,2013-01-14 04:55:00
11:35 PM,-7.6,-13.0,77,30.08,10.0,West,4.6,-,N/A,,Scattered Clouds,270,2013-01-14 05:35:00
11:55 PM,-6.7,-11.9,78,30.07,10.0,West,5.8,-,N/A,,Overcast,270,2013-01-14 05:55:00